View from above orbital plane
|
View from above satellite
|
Ground track
|
The orbit data is extracted from the following two-line orbital elements,
1 28373U 04025H 21023.40915979 .00000029 00000-0 20976-4 0 9995
2 28373 98.4848 334.1556 0068686 181.5188 178.5805 14.45651510874060
Epoch (UTC): | 23 January 2021 09:49:11 |
Eccentricity: | 0.0068686 |
inclination: | 98.4848° |
perigee height: | 691 km |
apogee height: | 789 km |
right ascension of ascending node: | 334.1556° |
argument of perigee: | 181.5188° |
revolutions per day: | 14.45651510 |
mean anomaly at epoch: | 178.5805° |
orbit number at epoch: | 87406 |
The dashed part of the orbit path shows where the satellite is in the earth's shadow,
|
|